Location: Kellogg
(38.0159°N, 90.0546°W)
Time: 08:08:29
(UTC+00:00)

Vanguard 1 Rocket - Pass Details

Date: 22 September 2024
Orbit: 650 x 4218 km, 34.3° (Epoch: 05 October)

Event Time Altitude Azimuth Distance (km) Brightness Sun altitude
Rises 06:36:12 0° 217° (SW) 3,958 - -50.6°
Reaches altitude 10° 06:38:36 10° 209° (SSW) 3,296 - -50.5°
Maximum altitude 06:46:30 40° 142° (SE) 2,601 - -49.9°
Exits shadow 06:51:21 31° 103° (ESE) 3,476 10.2 -49.6°
Drops below altitude 10° 07:00:56 10° 80° (E) 5,952 11.8 -48.8°
Sets 07:07:05 0° 75° (ENE) 7,515 12.5 -48.2°
